Hourly Data Report for October 19, 2013

All times are specified in Local Standard Time (LST). Add 1 hour to adjust for Daylight Saving Time where and when it is observed.

CHARLOTTETOWN A
PRINCE EDWARD ISLAND

46°17'21.000" N
63°07'09.000" W
48.50 m
8300301
71706
YYG

Download Data

Hourly Data (October 2013)
Hourly Data Report for October 19, 2013
Temp Definition
°C
Dew Point Temp Definition
°C
Rel Hum Definition
%
Wind Dir Definition
10's deg

Wind Spd Definition
km/h
Visibility Definition
km
Stn Press Definition
kPa
Hmdx Definition


Wind Chill Definition


Weather Definition


TIME
00:00 Legend Double Dagger 11.2 10.4 95 28 14 24.1 99.70     LegendNANA
01:00 Legend Double Dagger 11.1 9.9 92 27 16 24.1 99.77     LegendNANA
02:00 Legend Double Dagger 10.7 9.6 93 25 13 24.1 99.77     Mostly Cloudy
03:00 Legend Double Dagger 10.7 9.6 93 25 14 24.1 99.81     LegendNANA
04:00 Legend Double Dagger 10.3 9.2 93 25 15 24.1 99.82     LegendNANA
05:00 Legend Double Dagger 10.3 8.7 90 25 17 24.1 99.88     Mostly Cloudy
06:00 Legend Double Dagger 9.9 8.2 89 25 19 24.1 99.90     LegendNANA
07:00 Legend Double Dagger 9.5 7.6 88 24 14 24.1 99.97     LegendNANA
08:00 Legend Double Dagger 10.1 7.7 85 25 18 24.1 100.03     Mainly Clear
09:00 Legend Double Dagger 11.1 6.7 74 27 30 24.1 100.07     LegendNANA
10:00 Legend Double Dagger 11.1 5.7 69 27 33 24.1 100.13     LegendNANA
11:00 Legend Double Dagger 11.5 5.8 68 27 29 24.1 100.16     Mainly Clear
12:00 Legend Double Dagger 11.9 6.0 67 26 28 24.1 100.18     LegendNANA
13:00 Legend Double Dagger 12.4 5.4 62 29 21 24.1 100.19     LegendNANA
14:00 Legend Double Dagger 12.9 5.4 60 27 22 24.1 100.25     Mainly Clear
15:00 Legend Double Dagger 13.2 5.4 59 28 13 24.1 100.33     LegendNANA
16:00 Legend Double Dagger 12.8 5.8 62 29 17 24.1 100.37     LegendNANA
17:00 Legend Double Dagger 11.7 5.6 66 28 10 24.1 100.43     Mostly Cloudy
18:00 Legend Double Dagger 10.2 5.4 72 25 8 24.1 100.54     LegendNANA
19:00 Legend Double Dagger 7.7 5.5 86 25 6 24.1 100.53     LegendNANA
20:00 Legend Double Dagger 7.3 5.3 87 1 1 24.1 100.50     Mostly Cloudy
21:00 Legend Double Dagger 6.5 5.0 90 15 3 24.1 100.55     LegendNANA
22:00 Legend Double Dagger 7.8 5.6 86 18 6 24.1 100.55     LegendNANA
23:00 Legend Double Dagger 7.5 6.1 91 15 3 24.1 100.56     Mostly Cloudy

Notes on Data Quality.

Legend

  • E = Estimated
  • M = Missing
  • NA = Not Available
  • ‡ = Partner data that is not subject to review by the National Climate Archives
Date modified: